This is the latest recevied weather packets stored in our database for station/object NR0A-4. If no packets are shown the sender has not sent any weather packets the latest 10 day(s).
| Time | Temp. | Humidity | Pressure | Rain* | Wind** | Luminosity | Snow |
|---|---|---|---|---|---|---|---|
| 1787949304 | 28.33° C | 59% | 1016.2 hPa | 0 mm | - | 682 W/m² | - |
| 1787949004 | 28.33° C | 60% | 1016.3 hPa | 0 mm | - | 684 W/m² | - |
| 1787948704 | 28.33° C | 59% | 1016.2 hPa | 0 mm | - | 684 W/m² | - |
| 1787948404 | 28.33° C | 60% | 1016.3 hPa | 0 mm | - | 691 W/m² | - |
| 1787948104 | 28.33° C | 59% | 1016.4 hPa | 0 mm | - | 696 W/m² | - |
| 1787947804 | 28.33° C | 60% | 1016.5 hPa | 0 mm | - | 705 W/m² | - |
| 1787947504 | 28.33° C | 61% | 1016.6 hPa | 0 mm | - | 715 W/m² | - |
| 1787947213 | 28.33° C | 59% | 1016.7 hPa | 0 mm | - | 717 W/m² | - |
| 1787946904 | 28.33° C | 58% | 1016.8 hPa | 0 mm | - | 722 W/m² | - |
| 1787946604 | 28.33° C | 59% | 1016.9 hPa | 0 mm | - | 707 W/m² | - |
| 1787946304 | 28.33° C | 60% | 1016.8 hPa | 0 mm | - | 735 W/m² | - |
| 1787946005 | 28.33° C | 59% | 1016.9 hPa | 0 mm | - | 744 W/m² | - |
| 1787945704 | 28.33° C | 59% | 1016.9 hPa | 0 mm | - | 747 W/m² | - |
| 1787945405 | 28.33° C | 59% | 1017 hPa | 0 mm | - | 745 W/m² | - |
| 1787945104 | 28.33° C | 60% | 1017 hPa | 0 mm | - | 744 W/m² | - |
| 1787944805 | 28.33° C | 58% | 1017.1 hPa | 0 mm | - | 747 W/m² | - |
| 1787944513 | 28.33° C | 58% | 1017 hPa | 0 mm | - | 729 W/m² | - |
| 1787944205 | 28.33° C | 57% | 1017 hPa | 0 mm | - | 772 W/m² | - |
| 1787943904 | 28.33° C | 58% | 1017.1 hPa | 0 mm | - | 763 W/m² | - |
| 1787943604 | 27.78° C | 60% | 1017.3 hPa | 0 mm | - | 768 W/m² | - |
| 1787943305 | 27.78° C | 59% | 1017.2 hPa | 0 mm | - | 766 W/m² | - |
| 1787943004 | 27.78° C | 58% | 1017.2 hPa | 0 mm | - | 773 W/m² | - |
| 1787942704 | 27.78° C | 59% | 1017.3 hPa | 0 mm | - | 772 W/m² | - |
| 1787942404 | 27.78° C | 61% | 1017.3 hPa | 0 mm | - | 777 W/m² | - |
| 1787942104 | 27.22° C | 59% | 1017.4 hPa | 0 mm | - | 775 W/m² | - |
* Rain latest hour (hover to see other rain measurements)
** Current wind speed in m/s (hover to see current wind gust speed)